Weather History for Kalispell, MT

Change the Weather History Date:

Tuesday, February 14, 2012

  Actual Average Record
Temperature  
Mean Temperature 27 °F 27 °F  
Max Temperature 37 °F 36 °F 51 °F (1971)
Min Temperature 16 °F 18 °F -23 °F (1936)
Degree Days  
Heating Degree Days 38 38  
Month to date heating degree days 506 544  
Since 1 July heating degree days 4915 5335  
Cooling Degree Days 0 0  
Month to date cooling degree days 0 0  
Year to date cooling degree days 0 0  
Moisture  
Dew Point 21 °F    
Average Humidity 70    
Maximum Humidity 92    
Minimum Humidity 48    
Precipitation  
Precipitation T in 0.03 in 0.48 in (1910)
Month to date precipitation 0.28 0.47  
Year to date precipitation 1.65 1.80  
Snow  
Snow T in - - ()
Month to date snowfall 2.5  
Year to date snowfall 14.2  
Since 1 July snowfall 20.5  
Snow Depth 0.00 in    
Sea Level Pressure  
Sea Level Pressure 29.89 in    
Wind  
Wind Speed 4 mph (SW)    
Max Wind Speed 14 mph    
Max Gust Speed 18 mph    
Visibility 10 miles    
Events      
T = Trace of Precipitation, MM = Missing Value Source: NWS Daily Summary

Daily Weather History Graph

Daily Weather History Graph

Search for Another Location

Airport:

Trip Planner

Search our weather history database for the weather conditions in past years. The results will help you decide how hot, cold, wet, or windy it might be!

Date:

Astronomy

Feb. 14, 2012 Rise Set
Actual Time 7:46 AM MST 5:56 PM MST
Civil Twilight 7:14 AM MST 6:29 PM MST
Nautical Twilight 6:37 AM MST 7:05 PM MST
Astronomical Twilight 6:01 AM MST 7:41 PM MST
Moon 1:47 AM MST (2/14) 10:52 AM MST (2/14)
Length of Visible Light 11h 14m
Length of Day
10h 10m
Waning Gibbous, 49% of the Moon is Illuminated
Feb 14
Waning Gibbous
Feb 21
New
Feb 29
First Quarter
Mar 8
Full
Mar 14
Last Quarter

Hourly Weather History & Observations

Time (MST) Temp. Windchill Dew Point Humidity Pressure Visibility Wind Dir Wind Speed Gust Speed Precip Events Conditions
12:55 AM 32.0 °F 24.2 °F 30.0 °F 92% 29.81 in 10.0 mi SE 9.2 mph - N/A   Mostly Cloudy
1:55 AM 33.1 °F 28.7 °F 28.9 °F 85% 29.81 in 10.0 mi SSW 4.6 mph - N/A   Overcast
2:55 AM 30.9 °F 23.5 °F 25.0 °F 79% 29.84 in 10.0 mi NNW 8.1 mph - N/A   Overcast
3:55 AM 30.0 °F 25.2 °F 21.9 °F 72% 29.85 in 10.0 mi Variable 4.6 mph - N/A   Overcast
4:55 AM 28.9 °F 21.1 °F 25.0 °F 85% 29.87 in 10.0 mi NNE 8.1 mph - 0.00 in   Overcast
5:55 AM 28.0 °F 24.2 °F 24.1 °F 85% 29.88 in 10.0 mi NNW 3.5 mph - N/A   Overcast
6:55 AM 25.0 °F - 21.9 °F 88% 29.90 in 10.0 mi Calm Calm - N/A   Scattered Clouds
7:55 AM 27.0 °F - 23.0 °F 85% 29.91 in 10.0 mi Calm Calm - N/A   Overcast
8:55 AM 27.0 °F 23.0 °F 23.0 °F 85% 29.92 in 10.0 mi SW 3.5 mph - N/A   Overcast
9:55 AM 28.9 °F 23.9 °F 23.0 °F 78% 29.93 in 10.0 mi West 4.6 mph - N/A   Mostly Cloudy
10:55 AM 33.1 °F - 23.0 °F 66% 29.93 in 10.0 mi Calm Calm - N/A   Scattered Clouds
11:55 AM 34.0 °F 31.0 °F 23.0 °F 64% 29.92 in 10.0 mi NNE 3.5 mph - N/A   Clear
12:55 PM 37.0 °F 34.5 °F 19.9 °F 50% 29.90 in 10.0 mi North 3.5 mph - N/A   Clear
1:55 PM 35.1 °F 28.6 °F 19.0 °F 52% 29.88 in 10.0 mi SSE 8.1 mph - N/A   Clear
2:55 PM 35.1 °F 30.1 °F 19.9 °F 54% 29.88 in 10.0 mi SE 5.8 mph - N/A   Clear
3:55 PM 35.1 °F 27.4 °F 21.0 °F 57% 29.88 in 10.0 mi SSE 10.4 mph - N/A   Clear
4:55 PM 35.1 °F 27.9 °F 21.0 °F 57% 29.87 in 10.0 mi SSE 9.2 mph - N/A   Clear
5:55 PM 32.0 °F - 19.9 °F 61% 29.88 in 10.0 mi Calm Calm - N/A   Clear
6:55 PM 25.0 °F 18.1 °F 17.1 °F 72% 29.92 in 10.0 mi West 5.8 mph - N/A   Clear
7:55 PM 24.8 °F - 17.6 °F 74% 29.83 in 10.0 mi Calm Calm - N/A   Clear
8:55 PM 21.0 °F - 18.0 °F 88% 29.95 in 10.0 mi Calm Calm - N/A   Clear
9:55 PM 19.0 °F - 17.1 °F 92% 29.97 in 10.0 mi Calm Calm - N/A   Clear
10:55 PM 19.4 °F - 15.8 °F 86% 29.89 in 10.0 mi Calm Calm - N/A   Partly Cloudy
11:55 PM 17.1 °F - 14.0 °F 88% 30.01 in 10.0 mi Calm Calm - N/A   Partly Cloudy